Location: Unspecified
(41.1637°N, 24.2901°E)
Time: 00:53:30
(UTC+01:00)

X-37B - Visible Passes

Search period start: 06 March 2021 00:00
Search period end: 16 March 2021 00:00
Orbit: 383 x 391 km, 45.0° (Epoch: 27 February)

Date Brightness Start Highest point End Pass type
(mag) Time Alt. Az. Time Alt. Az. Time Alt. Az.
09 Mar 3.2 19:03:35 10° SSW 19:03:55 12° SSW 19:03:55 12° SSW visible
10 Mar 2.8 18:06:45 10° SSE 18:07:55 12° SE 18:08:53 11° ESE visible
10 Mar 3.6 19:40:55 10° WSW 19:41:13 12° WSW 19:41:13 12° WSW visible
11 Mar 1.2 18:42:48 10° SW 18:45:48 37° SSE 18:46:03 36° SE visible
12 Mar 1.7 19:20:46 10° WSW 19:23:05 43° W 19:23:05 43° W visible
13 Mar 0.6 18:22:26 10° WSW 18:25:37 67° SSE 18:27:40 20° ENE visible
13 Mar 3.8 19:59:18 10° W 19:59:58 15° WNW 19:59:58 15° WNW visible
14 Mar 1.1 19:00:45 10° W 19:03:55 53° NNW 19:04:28 45° NNE visible
15 Mar 0.7 18:02:17 10° WSW 18:05:29 76° NNW 18:08:43 10° ENE visible
15 Mar 2.7 19:39:20 10° WNW 19:41:10 27° NW 19:41:10 27° NW visible
